Portada
METAR-TAF:

METAR-TAF

Aeroports :

Najaf, Iraq

latitud: 31-59-23N, longitud: 44-24-15E, altitud: 31 m

Observació

L'informe es va fer fa 56 minuts, a les 20:00 UTC
Vent 3 kt del Est/Nord-Est
Temperatura 32°C
Humitat 28%
Pressió 1008 hPa
Visibilitat: 6000 m

METAR: ORNI 282000Z 07003KT 6000 NSC 32/11 Q1008

Hora: 23:56 (20:56 UTC)


TAF: manca

Observacions i pronòstics meteorològics de més de 4000 aeroports (METAR i TAF).

Les estacions disponibles són els punts grocs i vermells al mapa.

Posi el ratolí al punt desitjat per veure el nom de l'estació.

Feu clic per veure les observacions i els pronòstics meteorològics.

Per canviar el mapa: feu clic els botons verds amb una creu de color negre per apropar; al botó verd amb un guió per allunyar la imatge; o en les fletxes verdes per a mapes adjacents.


METAR-TAF: